When you browse on this site, cookies collect data to enhance your experience and personalize the content and advertising you see.
Visit our Privacy Policy to learn more. By continuing to use the site, you agree to this use of cookies and data.
  • In Slovakia
  • List of Countries
  • For 7 days
  • Water Temperature
  • Satellite Maps
  • Weather Map
  • Weather Widgets
  • user-avatar
    Login

    Hourly Weather Gorbunovschina

    Today, 20 June, Thursday

    Time Temperature Precipitation Wind Pressure Humidity
    00:00 +18°C° 0.8 mm 3 mps 743 mmHg 91%
    01:00 +18°C° 0.8 mm 3 mps 743 mmHg 93%
    02:00 +18°C° 0.8 mm 3 mps 743 mmHg 94%
    03:00 +18°C° 0.2 mm 3 mps 743 mmHg 94%
    04:00 +18°C° 0.2 mm 3 mps 743 mmHg 94%
    05:00 +18°C° 0.2 mm 2 mps 743 mmHg 94%
    06:00 +19°C° 0 mm 3 mps 743 mmHg 92%
    07:00 +20°C° 0 mm 3 mps 743 mmHg 90%
    08:00 +21°C° 0 mm 3 mps 743 mmHg 88%
    09:00 +22°C° 0.8 mm 4 mps 743 mmHg 84%
    10:00 +25°C° 0.8 mm 4 mps 742 mmHg 80%
    11:00 +26°C° 0.8 mm 5 mps 742 mmHg 77%
    12:00 +26°C° 1 mm 5 mps 742 mmHg 77%
    13:00 +26°C° 1 mm 5 mps 742 mmHg 77%
    14:00 +26°C° 1 mm 5 mps 742 mmHg 77%
    15:00 +26°C° 0.8 mm 5 mps 742 mmHg 77%
    16:00 +27°C° 0.8 mm 4 mps 741 mmHg 77%
    17:00 +27°C° 0.8 mm 4 mps 741 mmHg 78%
    18:00 +26°C° 0.6 mm 3 mps 741 mmHg 81%
    19:00 +24°C° 0.6 mm 3 mps 741 mmHg 84%
    20:00 +22°C° 0.6 mm 3 mps 741 mmHg 88%
    21:00 +22°C° 0.2 mm 3 mps 741 mmHg 89%
    22:00 +21°C° 0.2 mm 3 mps 741 mmHg 91%
    23:00 +20°C° 0.2 mm 3 mps 741 mmHg 93%

    Tomorrow, 21 June, Friday

    Time Temperature Precipitation Wind Pressure Humidity
    00:00 +20°C° 0 mm 3 mps 741 mmHg 94%
    01:00 +20°C° 0 mm 3 mps 742 mmHg 94%
    02:00 +19°C° 0 mm 3 mps 742 mmHg 95%
    03:00 +19°C° 0 mm 2 mps 742 mmHg 95%
    04:00 +19°C° 0 mm 2 mps 742 mmHg 96%
    05:00 +20°C° 0 mm 2 mps 742 mmHg 96%
    06:00 +21°C° 0 mm 2 mps 742 mmHg 94%
    07:00 +22°C° 0 mm 3 mps 742 mmHg 92%
    08:00 +24°C° 0 mm 3 mps 742 mmHg 90%
    09:00 +25°C° 1.2 mm 3 mps 742 mmHg 85%
    10:00 +26°C° 1.2 mm 3 mps 742 mmHg 80%
    11:00 +28°C° 1.2 mm 3 mps 742 mmHg 75%
    12:00 +28°C° 0.5 mm 3 mps 742 mmHg 72%
    13:00 +29°C° 0.5 mm 3 mps 742 mmHg 69%
    14:00 +29°C° 0.5 mm 3 mps 742 mmHg 66%
    15:00 +29°C° 0.3 mm 2 mps 742 mmHg 68%
    16:00 +29°C° 0.3 mm 2 mps 742 mmHg 71%
    17:00 +29°C° 0.3 mm 2 mps 742 mmHg 73%
    18:00 +28°C° 0.3 mm 2 mps 742 mmHg 77%
    19:00 +26°C° 0.3 mm 1 mps 742 mmHg 81%
    20:00 +24°C° 0.3 mm 1 mps 742 mmHg 84%
    21:00 +24°C° 0.3 mm 1 mps 742 mmHg 85%
    22:00 +23°C° 0.3 mm 1 mps 742 mmHg 86%
    23:00 +20°C° 0.3 mm 0 mps 742 mmHg 87%

    Day after tomorrow, 22 June, Saturday

    Time Temperature Precipitation Wind Pressure Humidity
    00:00 +22°C° 0.2 mm 1 mps 742 mmHg 88%
    01:00 +21°C° 0.2 mm 1 mps 743 mmHg 89%
    02:00 +21°C° 0.2 mm 1 mps 743 mmHg 90%
    03:00 +20°C° 0.5 mm 2 mps 743 mmHg 91%
    04:00 +20°C° 0.5 mm 2 mps 743 mmHg 92%
    05:00 +20°C° 0.5 mm 2 mps 743 mmHg 93%
    06:00 +20°C° 0.3 mm 2 mps 743 mmHg 93%
    07:00 +20°C° 0.3 mm 2 mps 744 mmHg 94%
    08:00 +20°C° 0.3 mm 2 mps 744 mmHg 95%
    09:00 +20°C° 0.1 mm 3 mps 744 mmHg 93%
    10:00 +21°C° 0.1 mm 3 mps 744 mmHg 92%
    11:00 +21°C° 0.1 mm 3 mps 745 mmHg 91%
    12:00 +22°C° 0.3 mm 3 mps 745 mmHg 90%
    13:00 +22°C° 0.3 mm 4 mps 745 mmHg 88%
    14:00 +23°C° 0.3 mm 4 mps 745 mmHg 87%
    15:00 +22°C° 0.9 mm 4 mps 745 mmHg 88%
    16:00 +22°C° 0.9 mm 3 mps 745 mmHg 88%
    17:00 +21°C° 0.9 mm 3 mps 745 mmHg 89%
    18:00 +21°C° 0.1 mm 3 mps 745 mmHg 90%
    19:00 +20°C° 0.1 mm 3 mps 745 mmHg 90%
    20:00 +20°C° 0.1 mm 3 mps 745 mmHg 91%
    21:00 +20°C° 0 mm 3 mps 745 mmHg 90%
    22:00 +19°C° 0 mm 3 mps 746 mmHg 89%
    23:00 +19°C° 0 mm 4 mps 746 mmHg 89%

    23 June, Sunday

    Time Temperature Precipitation Wind Pressure Humidity
    00:00 +18°C° 0 mm 4 mps 746 mmHg 88%
    01:00 +17°C° 0 mm 4 mps 746 mmHg 87%
    02:00 +15°C° 0 mm 4 mps 746 mmHg 86%
    03:00 +15°C° 0 mm 4 mps 746 mmHg 84%
    04:00 +15°C° 0 mm 4 mps 746 mmHg 82%
    05:00 +15°C° 0 mm 5 mps 746 mmHg 81%
    06:00 +15°C° 0.2 mm 5 mps 746 mmHg 82%
    07:00 +14°C° 0.2 mm 5 mps 747 mmHg 84%
    08:00 +14°C° 0.2 mm 5 mps 747 mmHg 86%
    09:00 +14°C° 0.3 mm 5 mps 747 mmHg 88%
    10:00 +15°C° 0.3 mm 5 mps 747 mmHg 90%
    11:00 +15°C° 0.3 mm 5 mps 747 mmHg 91%
    12:00 +16°C° 0 mm 5 mps 747 mmHg 89%
    13:00 +19°C° 0 mm 5 mps 747 mmHg 88%
    14:00 +20°C° 0 mm 5 mps 747 mmHg 86%
    15:00 +20°C° 0 mm 5 mps 747 mmHg 85%
    16:00 +21°C° 0 mm 5 mps 747 mmHg 84%
    17:00 +21°C° 0 mm 5 mps 747 mmHg 83%
    18:00 +20°C° 0.1 mm 5 mps 747 mmHg 85%
    19:00 +20°C° 0.1 mm 4 mps 748 mmHg 87%
    20:00 +19°C° 0.1 mm 4 mps 748 mmHg 89%
    21:00 +18°C° 0.1 mm 4 mps 748 mmHg 90%
    22:00 +18°C° 0.1 mm 4 mps 748 mmHg 91%
    23:00 +17°C° 0.1 mm 3 mps 748 mmHg 92%

    24 June, Monday

    Time Temperature Precipitation Wind Pressure Humidity
    00:00 +17°C° 0 mm 4 mps 748 mmHg 91%
    01:00 +17°C° 0 mm 4 mps 748 mmHg 90%
    02:00 +17°C° 0 mm 4 mps 748 mmHg 89%
    03:00 +15°C° 0.1 mm 4 mps 748 mmHg 88%
    04:00 +15°C° 0.1 mm 4 mps 749 mmHg 87%
    05:00 +16°C° 0.1 mm 3 mps 749 mmHg 86%
    06:00 +17°C° 0 mm 4 mps 749 mmHg 86%
    07:00 +17°C° 0 mm 4 mps 749 mmHg 86%
    08:00 +18°C° 0 mm 4 mps 749 mmHg 86%
    09:00 +19°C° 0 mm 4 mps 750 mmHg 83%
    10:00 +21°C° 0 mm 4 mps 750 mmHg 80%
    11:00 +22°C° 0 mm 4 mps 750 mmHg 77%
    12:00 +23°C° 0 mm 4 mps 750 mmHg 74%
    13:00 +23°C° 0 mm 5 mps 750 mmHg 72%
    14:00 +25°C° 0 mm 5 mps 750 mmHg 70%
    15:00 +25°C° 0 mm 5 mps 750 mmHg 71%
    16:00 +25°C° 0 mm 4 mps 750 mmHg 71%
    17:00 +25°C° 0 mm 4 mps 750 mmHg 72%
    18:00 +22°C° 0 mm 4 mps 750 mmHg 75%
    19:00 +21°C° 0 mm 4 mps 750 mmHg 79%
    20:00 +20°C° 0 mm 4 mps 750 mmHg 82%
    21:00 +19°C° 0 mm 3 mps 750 mmHg 82%
    22:00 +18°C° 0 mm 3 mps 751 mmHg 82%
    23:00 +18°C° 0 mm 3 mps 751 mmHg 81%

    25 June, Tuesday

    Time Temperature Precipitation Wind Pressure Humidity
    00:00 +17°C° 0 mm 3 mps 751 mmHg 83%
    01:00 +16°C° 0 mm 3 mps 751 mmHg 84%
    02:00 +14°C° 0 mm 3 mps 751 mmHg 86%
    03:00 +14°C° 0 mm 3 mps 751 mmHg 86%
    04:00 +14°C° 0 mm 3 mps 751 mmHg 86%
    05:00 +13°C° 0 mm 3 mps 751 mmHg 87%
    06:00 +16°C° 0 mm 3 mps 751 mmHg 84%
    07:00 +17°C° 0 mm 3 mps 751 mmHg 81%
    08:00 +19°C° 0 mm 3 mps 751 mmHg 78%
    09:00 +20°C° 0 mm 3 mps 751 mmHg 73%
    10:00 +22°C° 0 mm 3 mps 751 mmHg 68%
    11:00 +24°C° 0 mm 3 mps 751 mmHg 64%
    12:00 +24°C° 0 mm 3 mps 751 mmHg 61%
    13:00 +25°C° 0 mm 3 mps 751 mmHg 58%
    14:00 +26°C° 0 mm 2 mps 751 mmHg 55%
    15:00 +26°C° 0 mm 2 mps 750 mmHg 57%
    16:00 +25°C° 0 mm 2 mps 750 mmHg 59%
    17:00 +25°C° 0 mm 2 mps 750 mmHg 61%
    18:00 +24°C° 0 mm 2 mps 750 mmHg 66%
    19:00 +22°C° 0 mm 1 mps 750 mmHg 71%
    20:00 +20°C° 0 mm 1 mps 750 mmHg 76%
    21:00 +20°C° 0 mm 1 mps 750 mmHg 76%
    22:00 +19°C° 0 mm 1 mps 750 mmHg 77%
    23:00 +18°C° 0 mm 1 mps 750 mmHg 77%
    Show more